| time (UTC) | temp F | wind direction | speed MPH | gust MPH | rain 1hr in | rain 24hr in | rain mn in | humidity % | barometer mb |
| 20260507062334 | 48 | 208 | 1.0 | 5.0 | 0.00 | 0.00 | 0.00 | 87 | 1015.8 |
| 20260507061341 | 48 | 22 | 1.0 | 6.0 | 0.00 | 0.00 | 0.00 | 88 | 1015.8 |
| 20260507060346 | 47 | 1 | 1.0 | 5.0 | 0.00 | 0.00 | 0.00 | 89 | 1015.8 |
| 20260507055351 | 47 | 208 | 1.0 | 5.0 | 0.00 | 0.00 | 0.00 | 89 | 1015.6 |
| 20260507054333 | 46 | 360 | 1.0 | 5.0 | 0.00 | 0.00 | 0.00 | 89 | 1015.5 |
| 20260507053401 | 46 | 355 | 1.0 | 4.0 | 0.00 | 0.00 | 0.00 | 90 | 1015.5 |
| 20260507052320 | 46 | 7 | 1.0 | 5.0 | 0.00 | 0.00 | 0.00 | 90 | 1015.4 |
| 20260507051322 | 45 | 22 | 1.0 | 3.0 | 0.00 | 0.00 | 0.00 | 90 | 1015.3 |
| 20260507050406 | 45 | 15 | 1.0 | 2.0 | 0.00 | 0.00 | 0.00 | 89 | 1015.2 |
| 20260507045351 | 45 | 9 | 0.0 | 2.0 | 0.00 | 0.00 | 0.00 | 89 | 1015.1 |
| 20260507044337 | 45 | 3 | 1.0 | 2.0 | 0.00 | 0.00 | 0.00 | 89 | 1015.0 |
| 20260507043326 | 45 | 9 | 1.0 | 2.0 | 0.00 | 0.00 | 0.00 | 89 | 1015.0 |
| 20260507042355 | 45 | 357 | 0.0 | 0.0 | 0.00 | 0.00 | 0.00 | 89 | 1014.9 |
| 20260507041325 | 45 | 9 | 0.0 | 0.0 | 0.00 | 0.00 | 0.00 | 89 | 1014.9 |
| 20260507040330 | 45 | 9 | 1.0 | 2.0 | 0.00 | 0.00 | 0.00 | 89 | 1014.7 |
| 20260507035324 | 45 | 5 | 0.0 | 2.0 | 0.00 | 0.00 | 0.00 | 89 | 1014.7 |
| 20260507034329 | 45 | 358 | 0.0 | 3.0 | 0.00 | 0.00 | 0.00 | 89 | 1014.6 |
| 20260507033324 | 46 | 14 | 1.0 | 3.0 | 0.00 | 0.00 | 0.00 | 89 | 1014.6 |
| 20260507032323 | 46 | 6 | 0.0 | 2.0 | 0.00 | 0.00 | 0.00 | 88 | 1014.6 |
| 20260507031350 | 46 | 9 | 0.0 | 1.0 | 0.00 | 0.00 | 0.00 | 88 | 1014.5 |
| 20260507030342 | 46 | 15 | 0.0 | 2.0 | 0.00 | 0.00 | 0.00 | 88 | 1014.4 |
| 20260507025351 | 46 | 17 | 0.0 | 2.0 | 0.00 | 0.00 | 0.00 | 88 | 1014.4 |
| 20260507024351 | 46 | 7 | 0.0 | 2.0 | 0.00 | 0.00 | 0.00 | 88 | 1014.3 |
| 20260507023317 | 46 | 348 | 1.0 | 3.0 | 0.00 | 0.00 | 0.00 | 88 | 1014.3 |
| 20260507022351 | 47 | 360 | 1.0 | 5.0 | 0.00 | 0.00 | 0.00 | 87 | 1014.3 |
| 20260507021335 | 47 | 351 | 0.0 | 3.0 | 0.00 | 0.00 | 0.00 | 87 | 1014.2 |
| 20260507020321 | 47 | 350 | 0.0 | 3.0 | 0.00 | 0.00 | 0.00 | 87 | 1014.2 |
| 20260507015412 | 47 | 2 | 1.0 | 3.0 | 0.00 | 0.00 | 0.00 | 86 | 1014.0 |
| 20260507014400 | 47 | 11 | 0.0 | 5.0 | 0.00 | 0.00 | 0.00 | 86 | 1014.0 |
| 20260507013333 | 48 | 5 | 0.0 | 3.0 | 0.00 | 0.00 | 0.00 | 85 | 1014.0 |
| 20260507012356 | 48 | 28 | 0.0 | 2.0 | 0.00 | 0.00 | 0.00 | 85 | 1014.0 |
| 20260507011331 | 48 | 34 | 0.0 | 4.0 | 0.00 | 0.00 | 0.00 | 85 | 1013.9 |
| 20260507010329 | 48 | 28 | 0.0 | 5.0 | 0.00 | 0.00 | 0.00 | 84 | 1013.9 |
| 20260507005358 | 49 | 311 | 1.0 | 3.0 | 0.00 | 0.00 | 0.00 | 84 | 1013.8 |
| 20260507004324 | 49 | 5 | 1.0 | 4.0 | 0.00 | 0.00 | 0.00 | 83 | 1013.9 |
| 20260507003330 | 49 | 5 | 1.0 | 3.0 | 0.00 | 0.00 | 0.00 | 83 | 1013.8 |
| 20260507002327 | 50 | 10 | 1.0 | 3.0 | 0.00 | 0.00 | 0.00 | 82 | 1013.7 |
| 20260507001337 | 50 | 30 | 1.0 | 5.0 | 0.00 | 0.00 | 0.00 | 82 | 1013.6 |
| 20260507000328 | 50 | 344 | 2.0 | 6.0 | 0.00 | 0.00 | 0.00 | 81 | 1013.6 |
| 20260506235339 | 50 | 40 | 2.0 | 7.0 | 0.00 | 0.00 | 0.00 | 80 | 1013.6 |
| 20260506234336 | 51 | 42 | 1.0 | 4.0 | 0.00 | 0.00 | 0.00 | 79 | 1013.5 |
| 20260506233322 | 51 | 5 | 1.0 | 4.0 | 0.00 | 0.00 | 0.00 | 78 | 1013.4 |
| 20260506232341 | 51 | 25 | 1.0 | 5.0 | 0.00 | 0.00 | 0.00 | 77 | 1013.3 |
| 20260506231347 | 52 | 331 | 2.0 | 5.0 | 0.00 | 0.00 | 0.00 | 76 | 1013.2 |
| 20260506230323 | 52 | 9 | 2.0 | 7.0 | 0.00 | 0.00 | 0.00 | 75 | 1013.2 |
| 20260506225350 | 52 | 33 | 2.0 | 8.0 | 0.00 | 0.00 | 0.00 | 74 | 1013.2 |
| 20260506224333 | 52 | 356 | 2.0 | 7.0 | 0.00 | 0.00 | 0.00 | 74 | 1013.2 |
| 20260506223328 | 53 | 357 | 2.0 | 7.0 | 0.00 | 0.00 | 0.00 | 73 | 1013.1 |
| 20260506222323 | 53 | 8 | 2.0 | 7.0 | 0.00 | 0.00 | 0.00 | 73 | 1013.1 |
| 20260506221406 | 53 | 2 | 1.0 | 7.0 | 0.00 | 0.00 | 0.00 | 72 | 1013.1 |
| 20260506220352 | 53 | 23 | 2.0 | 6.0 | 0.00 | 0.00 | 0.00 | 71 | 1013.0 |
| 20260506215339 | 53 | 33 | 2.0 | 6.0 | 0.00 | 0.00 | 0.00 | 71 | 1013.0 |
| 20260506214334 | 53 | 75 | 3.0 | 8.0 | 0.00 | 0.00 | 0.00 | 71 | 1012.8 |
| 20260506213338 | 54 | 360 | 2.0 | 5.0 | 0.00 | 0.00 | 0.00 | 72 | 1012.9 |
| 20260506212329 | 54 | 18 | 2.0 | 7.0 | 0.00 | 0.00 | 0.00 | 73 | 1012.8 |
| 20260506211338 | 54 | 30 | 0.0 | 5.0 | 0.00 | 0.00 | 0.00 | 73 | 1012.7 |
| 20260506210343 | 54 | 356 | 1.0 | 2.0 | 0.00 | 0.00 | 0.00 | 73 | 1012.6 |
| 20260506205333 | 54 | 11 | 1.0 | 5.0 | 0.00 | 0.00 | 0.00 | 72 | 1012.6 |
| 20260506204328 | 54 | 6 | 1.0 | 5.0 | 0.00 | 0.00 | 0.00 | 71 | 1012.5 |
| 20260506203336 | 54 | 46 | 1.0 | 4.0 | 0.00 | 0.00 | 0.00 | 70 | 1012.5 |
| 20260506202321 | 54 | 9 | 0.0 | 2.0 | 0.00 | 0.00 | 0.00 | 70 | 1012.4 |
| 20260506201336 | 54 | 15 | 0.0 | 0.0 | 0.00 | 0.00 | 0.00 | 70 | 1012.3 |
| 20260506200342 | 54 | 14 | 0.0 | 3.0 | 0.00 | 0.00 | 0.00 | 69 | 1012.3 |
| 20260506195333 | 55 | 71 | 0.0 | 2.0 | 0.00 | 0.00 | 0.00 | 69 | 1012.2 |
| 20260506194344 | 55 | 65 | 1.0 | 6.0 | 0.00 | 0.00 | 0.00 | 68 | 1012.2 |
| 20260506193338 | 55 | 4 | 0.0 | 2.0 | 0.00 | 0.00 | 0.00 | 68 | 1012.0 |
| 20260506192332 | 55 | 55 | 0.0 | 2.0 | 0.00 | 0.00 | 0.00 | 67 | 1012.0 |
| 20260506191341 | 55 | 88 | 0.0 | 3.0 | 0.00 | 0.00 | 0.00 | 67 | 1011.8 |
| 20260506190332 | 55 | 70 | 1.0 | 2.0 | 0.00 | 0.00 | 0.00 | 66 | 1011.7 |
| 20260506185331 | 56 | 70 | 0.0 | 2.0 | 0.00 | 0.00 | 0.00 | 66 | 1011.5 |
| 20260506184334 | 56 | 70 | 1.0 | 3.0 | 0.00 | 0.00 | 0.00 | 65 | 1011.4 |
| 20260506183341 | 56 | 76 | 2.0 | 3.0 | 0.00 | 0.00 | 0.00 | 65 | 1011.3 |
| 20260506182348 | 56 | 73 | 1.0 | 3.0 | 0.00 | 0.00 | 0.00 | 64 | 1011.1 |
| 20260506181330 | 56 | 208 | 3.0 | 4.0 | 0.00 | 0.00 | 0.00 | 63 | 1011.0 |
| 20260506180330 | 56 | 70 | 2.0 | 5.0 | 0.00 | 0.00 | 0.00 | 63 | 1010.9 |
| 20260506175341 | 56 | 208 | 3.0 | 4.0 | 0.00 | 0.00 | 0.00 | 62 | 1010.8 |
| 20260506174348 | 56 | 208 | 3.0 | 5.0 | 0.00 | 0.00 | 0.00 | 62 | 1010.7 |
| 20260506173342 | 56 | 208 | 3.0 | 9.0 | 0.00 | 0.00 | 0.00 | 61 | 1010.6 |
| 20260506172324 | 56 | 208 | 5.0 | 9.0 | 0.00 | 0.00 | 0.00 | 59 | 1010.5 |
| 20260506171338 | 56 | 208 | 5.0 | 11.0 | 0.00 | 0.00 | 0.00 | 60 | 1010.4 |
| 20260506170331 | 57 | 87 | 3.0 | 10.0 | 0.00 | 0.00 | 0.00 | 60 | 1010.4 |
| 20260506165323 | 57 | 138 | 7.0 | 10.0 | 0.00 | 0.00 | 0.00 | 60 | 1010.3 |
| 20260506164322 | 57 | 108 | 7.0 | 15.0 | 0.00 | 0.00 | 0.00 | 60 | 1010.3 |
| 20260506163348 | 57 | 59 | 3.0 | 12.0 | 0.00 | 0.00 | 0.00 | 60 | 1010.3 |
| 20260506162402 | 57 | 234 | 6.0 | 12.0 | 0.00 | 0.00 | 0.00 | 59 | 1010.3 |
| 20260506161318 | 57 | 77 | 0.0 | 6.0 | 0.00 | 0.00 | 0.00 | 61 | 1010.3 |
| 20260506160322 | 57 | 60 | 4.0 | 10.0 | 0.00 | 0.00 | 0.00 | 61 | 1010.3 |
| 20260506155333 | 57 | 208 | 8.0 | 13.0 | 0.00 | 0.00 | 0.00 | 61 | 1010.3 |
| 20260506154323 | 57 | 339 | 1.0 | 12.0 | 0.00 | 0.00 | 0.00 | 60 | 1010.3 |
| 20260506153355 | 57 | 208 | 6.0 | 11.0 | 0.00 | 0.00 | 0.00 | 60 | 1010.3 |
| 20260506152324 | 58 | 81 | 6.0 | 15.0 | 0.00 | 0.00 | 0.00 | 60 | 1010.3 |
| 20260506151334 | 57 | 94 | 5.0 | 14.0 | 0.00 | 0.00 | 0.00 | 59 | 1010.3 |
| 20260506150330 | 58 | 82 | 7.0 | 13.0 | 0.00 | 0.00 | 0.00 | 59 | 1010.3 |
| 20260506145340 | 58 | 99 | 6.0 | 12.0 | 0.00 | 0.00 | 0.00 | 58 | 1010.2 |
| 20260506144334 | 59 | 102 | 5.0 | 11.0 | 0.00 | 0.00 | 0.00 | 53 | 1010.1 |
| 20260506143347 | 60 | 98 | 2.0 | 9.0 | 0.00 | 0.00 | 0.00 | 52 | 1010.1 |
| 20260506142348 | 59 | 46 | 4.0 | 12.0 | 0.00 | 0.00 | 0.00 | 55 | 1010.1 |
| 20260506141324 | 60 | 334 | 2.0 | 16.0 | 0.00 | 0.00 | 0.00 | 54 | 1010.0 |
| 20260506140335 | 59 | 57 | 9.0 | 17.0 | 0.00 | 0.00 | 0.00 | 56 | 1010.0 |
| 20260506135330 | 59 | 90 | 3.0 | 8.0 | 0.00 | 0.00 | 0.00 | 55 | 1010.0 |
| 20260506134321 | 60 | 73 | 3.0 | 12.0 | 0.00 | 0.00 | 0.00 | 59 | 1009.8 |
| 20260506133336 | 60 | 312 | 2.0 | 9.0 | 0.00 | 0.00 | 0.00 | 57 | 1009.9 |
| 20260506132331 | 60 | 28 | 3.0 | 7.0 | 0.00 | 0.00 | 0.00 | 59 | 1009.8 |
| 20260506131339 | 60 | 256 | 2.0 | 8.0 | 0.00 | 0.00 | 0.00 | 59 | 1009.7 |
| 20260506130348 | 62 | 20 | 2.0 | 9.0 | 0.00 | 0.00 | 0.00 | 57 | 1009.7 |
| 20260506125338 | 62 | 77 | 2.0 | 15.0 | 0.00 | 0.00 | 0.00 | 58 | 1009.6 |
| 20260506124349 | 61 | 13 | 2.0 | 10.0 | 0.00 | 0.00 | 0.00 | 59 | 1009.7 |
| 20260506123338 | 61 | 337 | 2.0 | 11.0 | 0.00 | 0.00 | 0.00 | 59 | 1009.5 |
| 20260506122336 | 61 | 208 | 8.0 | 14.0 | 0.00 | 0.00 | 0.00 | 59 | 1009.5 |
| 20260506121323 | 61 | 349 | 2.0 | 11.0 | 0.00 | 0.00 | 0.00 | 60 | 1009.5 |
| 20260506120325 | 60 | 18 | 2.0 | 6.0 | 0.00 | 0.00 | 0.00 | 61 | 1009.4 |
| 20260506115321 | 58 | 65 | 3.0 | 10.0 | 0.00 | 0.00 | 0.00 | 61 | 1009.4 |
| 20260506114339 | 58 | 58 | 2.0 | 9.0 | 0.00 | 0.00 | 0.00 | 66 | 1009.5 |
| 20260506113338 | 58 | 97 | 2.0 | 8.0 | 0.00 | 0.00 | 0.00 | 64 | 1009.5 |
| 20260506112320 | 58 | 323 | 2.0 | 6.0 | 0.00 | 0.00 | 0.00 | 64 | 1009.5 |
| 20260506111346 | 59 | 69 | 3.0 | 10.0 | 0.00 | 0.00 | 0.00 | 64 | 1009.4 |
| 20260506110322 | 60 | 349 | 3.0 | 11.0 | 0.00 | 0.00 | 0.00 | 59 | 1009.4 |
| 20260506105335 | 60 | 296 | 2.0 | 5.0 | 0.00 | 0.00 | 0.00 | 65 | 1009.4 |
| 20260506104328 | 61 | 23 | 4.0 | 8.0 | 0.00 | 0.00 | 0.00 | 62 | 1009.4 |
| 20260506103334 | 60 | 10 | 3.0 | 9.0 | 0.00 | 0.00 | 0.00 | 61 | 1009.4 |
| 20260506102331 | 60 | 5 | 3.0 | 8.0 | 0.00 | 0.00 | 0.00 | 61 | 1009.2 |
| 20260506101321 | 60 | 68 | 2.0 | 8.0 | 0.00 | 0.00 | 0.00 | 64 | 1009.3 |
| 20260506100334 | 59 | 23 | 2.0 | 5.0 | 0.00 | 0.00 | 0.00 | 68 | 1009.2 |
| 20260506095334 | 57 | 344 | 2.0 | 8.0 | 0.00 | 0.00 | 0.00 | 68 | 1009.2 |
| 20260506094327 | 57 | 334 | 1.0 | 6.0 | 0.00 | 0.00 | 0.00 | 68 | 1009.2 |
| 20260506093347 | 57 | 338 | 2.0 | 8.0 | 0.00 | 0.00 | 0.00 | 71 | 1009.2 |
| 20260506092325 | 57 | 16 | 2.0 | 6.0 | 0.00 | 0.00 | 0.00 | 72 | 1009.1 |
| 20260506091326 | 57 | 21 | 2.0 | 5.0 | 0.00 | 0.00 | 0.00 | 73 | 1009.1 |
| 20260506090333 | 56 | 348 | 2.0 | 9.0 | 0.00 | 0.00 | 0.00 | 74 | 1009.0 |
| 20260506085327 | 56 | 304 | 3.0 | 9.0 | 0.00 | 0.00 | 0.00 | 75 | 1009.1 |
| 20260506084337 | 56 | 36 | 3.0 | 9.0 | 0.00 | 0.00 | 0.00 | 75 | 1009.0 |
| 20260506083322 | 55 | 329 | 2.0 | 10.0 | 0.00 | 0.00 | 0.00 | 76 | 1008.9 |
| 20260506082324 | 55 | 293 | 2.0 | 11.0 | 0.00 | 0.00 | 0.00 | 76 | 1008.9 |
| 20260506081319 | 55 | 336 | 3.0 | 8.0 | 0.00 | 0.00 | 0.00 | 78 | 1009.0 |
| 20260506080336 | 55 | 55 | 2.0 | 10.0 | 0.00 | 0.00 | 0.00 | 79 | 1008.9 |
| 20260506073335 | 54 | 57 | 3.0 | 14.0 | 0.00 | 0.00 | 0.00 | 82 | 1008.8 |
| 20260506072351 | 53 | 157 | 1.0 | 4.0 | 0.00 | 0.00 | 0.00 | 82 | 1008.9 |
| 20260506071358 | 53 | 359 | 2.0 | 7.0 | 0.00 | 0.00 | 0.00 | 83 | 1008.8 |
| 20260506070324 | 53 | 319 | 1.0 | 5.0 | 0.00 | 0.00 | 0.00 | 84 | 1008.7 |